User: anonymous   Login
Location: Unspecified
(0.0000°N, 0.0000°E)
Time: 17:07:21
(UTC+00:00)
Language:

JUGNU - Orbit

View from above orbital plane
View from above orbital plane
View from above satellite
View from above satellite

Ground track
Ground track

The orbit data is extracted from the following two-line orbital elements,

1 37839U 11058B   17264.30049704  .00000320  00000-0  28740-4 0  9992
2 37839 019.9604 227.6980 0019054 162.1654 346.8231 14.12593759307192
Epoch (UTC): 21 September 2017 07:12:42
Eccentricity: 0.0019054
inclination: 19.9604°
perigee height: 837 km
apogee height: 864 km
right ascension of ascending node: 227.6980°
argument of perigee: 162.1654°
revolutions per day: 14.12593759
mean anomaly at epoch: 346.8231°
orbit number at epoch: 30719

The dashed part of the orbit path shows where the satellite is in the earth's shadow,  

DLR